*** The Vicarage Weather Feed ***

NOAA NWS Hourly Roundups by Site

Regional Weather Roundup for Omaha, NE

To Select Another Site Choose from List

Select Site:  

000
ASUS43 KOAX 181303
RWRNE

WEATHER ROUNDUP FOR NEBRASKA
NATIONAL WEATHER SERVICE OMAHA NE
800 AM CDT SAT AUG 18 2018

NOTES: SATELLITE DATA IS BEING USED TO AUGMENT CLOUD COVER ABOVE
       12000 FEET.
       "FAIR" INDICATES FEW OR NO CLOUDS BELOW 12,000 FEET WITH NO
       SIGNIFICANT WEATHER AND/OR OBSTRUCTIONS TO VISIBILITY.


NEZ001>004-019>022-054>056-181400-
NEBRASKA PANHANDLE

CITY           SKY/WX    TMP DP  RH WIND       PRES   REMARKS
SCOTTSBLUFF    CLEAR     60  59  96 E12       30.08S
ALLIANCE       CLEAR     59  59 100 S10       30.10S
CHADRON        PTCLDY    65  58  78 E6        30.03F
GORDON         FAIR      63  59  86 CALM      30.07F
KIMBALL        CLEAR     58  57  95 SE8       30.15S
SIDNEY         CLEAR     57  56  96 S5        30.14F
$$

NEZ057>060-069>072-079>082-181400-
SOUTHWEST NEBRASKA

CITY           SKY/WX    TMP DP  RH WIND       PRES   REMARKS
NORTH PLATTE   SUNNY     63  62  97 SE3       30.12S FOG
IMPERIAL       SUNNY     61  61 100 SE5       30.13S
LEXINGTON      SUNNY     65  63  92 CALM      30.12S
MCCOOK         SUNNY     64  62  93 CALM      30.13R FOG
OGALLALA       SUNNY     61  60  97 CALM      30.12F FOG
$$

NEZ005>010-023>029-035>040-094-181400-
NORTH CENTRAL NEBRASKA

CITY           SKY/WX    TMP DP  RH WIND       PRES   REMARKS
VALENTINE      SUNNY     69  65  86 S8        30.06F
AINSWORTH      SUNNY     65  64  98 S7        30.08F
BROKEN BOW     SUNNY     62  61  96 CALM      30.11F
O`NEILL        SUNNY     66  65  96 SE3       30.10F
ORD            PTSUNNY   62  62 100 CALM      30.10S FOG
THEDFORD       SUNNY     67  63  87 S7        30.11S
$$

NEZ041-046>049-061>064-073>077-083>087-181400-
SOUTH CENTRAL NEBRASKA

CITY           SKY/WX    TMP DP  RH WIND       PRES   REMARKS
GRAND ISLAND   SUNNY     67  65  93 SE5       30.12S FOG
AURORA         SUNNY     64  64 100 CALM      30.12S FOG
HASTINGS       SUNNY     66  66 100 SE3       30.13S FOG
HEBRON         SUNNY     65  64  97 CALM      30.12S FOG
HOLDREGE       SUNNY     64  63  97 CALM      30.13R
KEARNEY        SUNNY     65  63  93 S3        30.13S
YORK           SUNNY     64  63  94 CALM      30.12S FOG
$$

NEZ011>018-030>034-042>045-181400-
NORTHEAST NEBRASKA

CITY           SKY/WX    TMP DP  RH WIND       PRES   REMARKS
NORFOLK        FOG       66  66 100 SE5       30.09F VSB 3/4
ALBION         PTSUNNY   62  61  97 CALM      30.12S FOG
BLAIR          SUNNY     67  66  97 CALM      30.10S
COLUMBUS       SUNNY     64  64 100 CALM      30.12S FOG
FREMONT        SUNNY     66  65  99 CALM      30.11S
TEKAMAH        CLOUDY    64  64 100 N5        30.10R FOG
WAYNE          MOSUNNY   62  61  96 CALM      30.11S FOG
$$

NEZ050>053-065>068-078-088>093-181400-
SOUTHEAST NEBRASKA

CITY           SKY/WX    TMP DP  RH WIND       PRES   REMARKS
LINCOLN        SUNNY     69  65  86 N3        30.11S
OMAHA EPPLEY   PTSUNNY   66  64  93 CALM      30.09S
BEATRICE       SUNNY     67  66  98 CALM      30.11R
FALLS CITY     SUNNY     69  67  93 CALM      30.08S
NEBRASKA CITY  FOG       68  68 100 CALM      30.10S VSB 1/2
PLATTSMOUTH    SUNNY     67  67  99 CALM      30.10S FOG
$$

NEZ044-045-051>053-067-181400-
OMAHA AREA

CITY           SKY/WX    TMP DP  RH WIND       PRES   REMARKS
OMAHA EPPLEY   PTSUNNY   66  64  93 CALM      30.09S
BLAIR          SUNNY     67  66  97 CALM      30.10S
FREMONT        SUNNY     66  65  99 CALM      30.11S
MILLARD        SUNNY     69  68  96 CALM      30.10S
OFFUTT AFB     SUNNY     66  66 100 CALM      30.09S
PLATTSMOUTH    SUNNY     67  67  99 CALM      30.10S FOG
WAHOO            N/A     65  65  99 CALM      30.10S FOG
$$


 

View Past Reports for Omaha, NE.

Products Courtesy of NOAA-NWS
NWS Information Parsing Script by Ken True at Saratoga Weather - Script by SE Lincoln Weather.

This data is offered only as a general guide to local weather conditions. It should not be relied upon in lieu of officially disseminated weather information for determining possible risk to persons or property. This site, including all information contained therein, is made available as is without warranties of any kind, either express or implied. The Vicarage Weather Feed© includes links to other sites for user convenience only. The content of any linked third-party site is not controlled by The Vicarage Weather Feed©. Access to any third-party website through The Vicarage Weather Feed©, regardless of whether or not the third-party site is a linked site, is entirely at the users own risk. Externally sourced content or material is excluded from The Vicarage Weather Feed© copyright and is the copyright and property of the respective provider. Skywarn® and the Skywarn® logo are registered trademarks of the National Oceanic and Atmospheric Administration, used with permission.